Change the Weather History Date:

Saturday, February 22, 2014

  Actual Average Record
Temperature  
Mean Temperature 79 °F -  
Max Temperature 85 °F 79 °F - ()
Min Temperature 73 °F 63 °F - ()
Cooling Degree Days 14    
Growing Degree Days 29 (Base 50)    
Moisture  
Dew Point 71 °F    
Average Humidity 79    
Maximum Humidity 93    
Minimum Humidity 62    
Precipitation  
Precipitation 0.00 in 0.05 in - ()
Sea Level Pressure  
Sea Level Pressure 30.10 in    
Wind  
Wind Speed 5 mph ()    
Max Wind Speed 12 mph    
Max Gust Speed -    
Visibility 6.6 miles    
Events      
T = Trace of Precipitation, MM = Missing Value Source: Averaged Metar Reports

Daily Weather History Graph

Daily Weather History Graph

Search for Another Location

Airport or City:

Trip Planner

Search our weather history database for the weather conditions in past years. The results will help you decide how hot, cold, wet, or windy it might be!

Date:

Astronomy

Feb. 22, 2014 Rise Set
Actual Time 6:38 AM EST 6:08 PM EST
Civil Twilight 6:15 AM EST 6:31 PM EST
Nautical Twilight 5:48 AM EST 6:58 PM EST
Astronomical Twilight 5:22 AM EST 7:24 PM EST
Moon 12:17 AM EST (2/22) 11:32 AM EST (2/22)
Length of Visible Light 12h 15m
Length of Day
11h 29m
Waning Gibbous, 50% of the Moon is Illuminated
Feb 22
Waning Gibbous
Feb 22
Last Quarter
Mar 1
New
Mar 8
First Quarter
Mar 16
Full

Hourly Weather History & Observations

Time (EST) Temp. Heat Index Dew Point Humidity Pressure Visibility Wind Dir Wind Speed Gust Speed Precip Events Conditions
12:00 AM 75.2 °F - 69.8 °F 83% 30.11 in 6.2 mi SE 4.6 mph - N/A   Mostly Cloudy
1:00 AM 75 °F - 71 °F 85% 30.10 in 8 mi SE 4.6 mph - -   Partly Cloudy
1:00 AM 75.2 °F - 71.6 °F 89% 30.10 in 6.2 mi SE 4.6 mph - N/A   Mostly Cloudy
2:00 AM 75.2 °F - 69.8 °F 83% 30.08 in 6.2 mi SE 6.9 mph - N/A   Mostly Cloudy
3:00 AM 75.2 °F - 69.8 °F 83% 30.06 in 6.2 mi SE 4.6 mph - N/A   Mostly Cloudy
4:00 AM 75 °F - 73 °F 92% 30.07 in 8 mi SSE 6.9 mph - -   Partly Cloudy
4:00 AM 75.2 °F - 71.6 °F 89% 30.06 in 6.2 mi SSE 6.9 mph - N/A   Mostly Cloudy
5:00 AM 75.2 °F - 69.8 °F 83% 30.08 in 6.2 mi SE 4.6 mph - N/A   Mostly Cloudy
6:00 AM 75.2 °F - 69.8 °F 83% 30.08 in 6.2 mi Calm Calm - N/A   Scattered Clouds
7:00 AM 74 °F - 72 °F 93% 30.11 in 8 mi Calm Calm - -   Scattered Clouds
7:00 AM 75.2 °F - 71.6 °F 89% 30.10 in 6.2 mi Calm Calm - N/A   Partly Cloudy
8:00 AM 77.0 °F - 71.6 °F 83% 30.11 in 6.2 mi SE 4.6 mph - N/A   Partly Cloudy
9:00 AM 78.8 °F - 69.8 °F 74% 30.12 in 6.2 mi SSE 9.2 mph - N/A   Scattered Clouds
10:00 AM 83 °F - 74 °F 69% 30.15 in 8 mi South 11.5 mph - -   Partly Cloudy
10:00 AM 82.4 °F 89.5 °F 75.2 °F 79% 30.15 in 6.2 mi South 11.5 mph - N/A   Scattered Clouds
11:00 AM 80.6 °F 83.2 °F 68.0 °F 65% 30.14 in 6.2 mi South 9.2 mph - N/A   Scattered Clouds
12:00 PM 82.4 °F 86.3 °F 69.8 °F 66% 30.12 in 6.2 mi South 9.2 mph - N/A   Scattered Clouds
1:00 PM 85 °F - 74 °F 62% 30.11 in 8 mi South 11.5 mph - -   Partly Cloudy
1:00 PM 84.2 °F 90.9 °F 73.4 °F 70% 30.10 in 6.2 mi South 11.5 mph - N/A   Scattered Clouds
2:00 PM 82.4 °F 86.3 °F 69.8 °F 66% 30.07 in 6.2 mi SSE 9.2 mph - N/A   Partly Cloudy
3:00 PM 82.4 °F 86.3 °F 69.8 °F 66% 30.04 in 6.2 mi SSE 8.1 mph - N/A   Partly Cloudy